Year,Month,Day,Hour,Minute,Value (Times are PST for temperature in C)
2013,07,22,00,00,14.50
2013,07,22,00,01,14.50
2013,07,22,00,02,14.40
2013,07,22,00,03,14.40
2013,07,22,00,04,14.40
2013,07,22,00,05,14.40
2013,07,22,00,06,14.40
2013,07,22,00,07,14.40
2013,07,22,00,08,14.40
2013,07,22,00,09,14.40
2013,07,22,00,10,14.40
2013,07,22,00,11,14.40
2013,07,22,00,12,14.30
2013,07,22,00,13,14.30
2013,07,22,00,14,14.30
2013,07,22,00,15,14.30
2013,07,22,00,16,14.30
2013,07,22,00,17,14.30
2013,07,22,00,18,14.30
2013,07,22,00,19,14.30
2013,07,22,00,20,14.30
2013,07,22,00,21,14.30
2013,07,22,00,22,14.30
2013,07,22,00,23,14.30
2013,07,22,00,24,14.30
2013,07,22,00,25,14.30
2013,07,22,00,26,14.20
2013,07,22,00,27,14.20
2013,07,22,00,28,14.20
2013,07,22,00,29,14.20
2013,07,22,00,30,14.20
2013,07,22,00,31,14.20
2013,07,22,00,32,14.20
2013,07,22,00,33,14.20
2013,07,22,00,34,14.20
2013,07,22,00,35,14.20
2013,07,22,00,36,14.20
2013,07,22,00,37,14.20
2013,07,22,00,38,14.10
2013,07,22,00,39,14.10
2013,07,22,00,40,14.10
2013,07,22,00,41,14.10
2013,07,22,00,42,14.10
2013,07,22,00,43,14.10
2013,07,22,00,44,14.10
2013,07,22,00,45,14.10
2013,07,22,00,46,14.10
2013,07,22,00,47,14.00
2013,07,22,00,48,14.00
2013,07,22,00,49,14.00
2013,07,22,00,50,14.00
2013,07,22,00,51,14.00
2013,07,22,00,52,14.00
2013,07,22,00,53,14.00
2013,07,22,00,54,13.90
2013,07,22,00,55,13.90
2013,07,22,00,56,13.90
2013,07,22,00,57,13.90
2013,07,22,00,58,13.90
2013,07,22,00,59,13.90
2013,07,22,01,00,13.90
2013,07,22,01,01,13.90
2013,07,22,01,02,13.90
2013,07,22,01,03,13.90
2013,07,22,01,04,13.90
2013,07,22,01,05,13.90
2013,07,22,01,06,13.80
2013,07,22,01,07,13.80
2013,07,22,01,08,13.80
2013,07,22,01,09,13.80
2013,07,22,01,10,13.80
2013,07,22,01,11,13.80
2013,07,22,01,12,13.80
2013,07,22,01,13,13.80
2013,07,22,01,14,13.80
2013,07,22,01,15,13.80
2013,07,22,01,16,13.80
2013,07,22,01,17,13.80
2013,07,22,01,18,13.80
2013,07,22,01,19,13.80
2013,07,22,01,20,13.80
2013,07,22,01,21,13.80
2013,07,22,01,22,13.80
2013,07,22,01,23,13.80
2013,07,22,01,24,13.80
2013,07,22,01,25,13.80
2013,07,22,01,26,13.80
2013,07,22,01,27,13.80
2013,07,22,01,28,13.80
2013,07,22,01,29,13.70
2013,07,22,01,30,13.70
2013,07,22,01,31,13.70
2013,07,22,01,32,13.70
2013,07,22,01,33,13.70
2013,07,22,01,34,13.70
2013,07,22,01,35,13.70
2013,07,22,01,36,13.70
2013,07,22,01,37,13.70
2013,07,22,01,38,13.60
2013,07,22,01,39,13.60
2013,07,22,01,40,13.60
2013,07,22,01,41,13.60
2013,07,22,01,42,13.60
2013,07,22,01,43,13.60
2013,07,22,01,44,13.60
2013,07,22,01,45,13.60
2013,07,22,01,46,13.60
2013,07,22,01,47,13.60
2013,07,22,01,48,13.60
2013,07,22,01,49,13.60
2013,07,22,01,50,13.60
2013,07,22,01,51,13.60
2013,07,22,01,52,13.60
2013,07,22,01,53,13.60
2013,07,22,01,54,13.50
2013,07,22,01,55,13.50
2013,07,22,01,56,13.50
2013,07,22,01,57,13.50
2013,07,22,01,58,13.50
2013,07,22,01,59,13.40
2013,07,22,02,00,13.40
2013,07,22,02,01,13.40
2013,07,22,02,02,13.40
2013,07,22,02,03,13.40
2013,07,22,02,04,13.40
2013,07,22,02,05,13.40
2013,07,22,02,06,13.40
2013,07,22,02,07,13.40
2013,07,22,02,08,13.40
2013,07,22,02,09,13.40
2013,07,22,02,10,13.40
2013,07,22,02,11,13.40
2013,07,22,02,12,13.40
2013,07,22,02,13,13.40
2013,07,22,02,14,13.40
2013,07,22,02,15,13.40
2013,07,22,02,16,13.30
2013,07,22,02,17,13.30
2013,07,22,02,18,13.30
2013,07,22,02,19,13.30
2013,07,22,02,20,13.30
2013,07,22,02,21,13.30
2013,07,22,02,22,13.30
2013,07,22,02,23,13.30
2013,07,22,02,24,13.30
2013,07,22,02,25,13.30
2013,07,22,02,26,13.30
2013,07,22,02,27,13.30
2013,07,22,02,28,13.30
2013,07,22,02,29,13.30
2013,07,22,02,30,13.30
2013,07,22,02,31,13.30
2013,07,22,02,32,13.30
2013,07,22,02,33,13.30
2013,07,22,02,34,13.30
2013,07,22,02,35,13.30
2013,07,22,02,36,13.20
2013,07,22,02,37,13.20
2013,07,22,02,38,13.20
2013,07,22,02,39,13.20
2013,07,22,02,40,13.20
2013,07,22,02,41,13.20
2013,07,22,02,42,13.20
2013,07,22,02,43,13.20
2013,07,22,02,44,13.20
2013,07,22,02,45,13.20
2013,07,22,02,46,13.20
2013,07,22,02,47,13.20
2013,07,22,02,48,13.20
2013,07,22,02,49,13.20
2013,07,22,02,50,13.20
2013,07,22,02,51,13.20
2013,07,22,02,52,13.20
2013,07,22,02,53,13.20
2013,07,22,02,54,13.20
2013,07,22,02,55,13.20
2013,07,22,02,56,13.20
2013,07,22,02,57,13.20
2013,07,22,02,58,13.20
2013,07,22,02,59,13.20
2013,07,22,03,00,13.20
2013,07,22,03,01,13.20
2013,07,22,03,02,13.20
2013,07,22,03,06,13.20
2013,07,22,03,07,13.20
2013,07,22,03,08,13.20
2013,07,22,03,09,13.20
2013,07,22,03,10,13.20
2013,07,22,03,11,13.20
2013,07,22,03,12,13.20
2013,07,22,03,13,13.20
2013,07,22,03,14,13.20
2013,07,22,03,15,13.20
2013,07,22,03,16,13.20
2013,07,22,03,17,13.20
2013,07,22,03,18,13.20
2013,07,22,03,19,13.20
2013,07,22,03,20,13.20
2013,07,22,03,21,13.20
2013,07,22,03,22,13.20
2013,07,22,03,23,13.20
2013,07,22,03,24,13.20
2013,07,22,03,25,13.20
2013,07,22,03,26,13.20
2013,07,22,03,27,13.20
2013,07,22,03,28,13.20
2013,07,22,03,29,13.20
2013,07,22,03,30,13.20
2013,07,22,03,31,13.20
2013,07,22,03,32,13.20
2013,07,22,03,33,13.20
2013,07,22,03,34,13.20
2013,07,22,03,35,13.20
2013,07,22,03,36,13.20
2013,07,22,03,37,13.20
2013,07,22,03,38,13.20
2013,07,22,03,39,13.20
2013,07,22,03,40,13.20
2013,07,22,03,41,13.20
2013,07,22,03,42,13.20
2013,07,22,03,43,13.20
2013,07,22,03,44,13.20
2013,07,22,03,45,13.20
2013,07,22,03,46,13.20
2013,07,22,03,47,13.20
2013,07,22,03,48,13.20
2013,07,22,03,49,13.20
2013,07,22,03,50,13.20
2013,07,22,03,51,13.20
2013,07,22,03,52,13.20
2013,07,22,03,53,13.20
2013,07,22,03,54,13.20
2013,07,22,03,55,13.20
2013,07,22,03,56,13.20
2013,07,22,03,57,13.20
2013,07,22,03,58,13.20
2013,07,22,03,59,13.20
2013,07,22,04,00,13.20
2013,07,22,04,01,13.20
2013,07,22,04,02,13.20
2013,07,22,04,03,13.10
2013,07,22,04,04,13.10
2013,07,22,04,05,13.10
2013,07,22,04,06,13.10
2013,07,22,04,07,13.10
2013,07,22,04,08,13.10
2013,07,22,04,09,13.10
2013,07,22,04,10,13.10
2013,07,22,04,11,13.10
2013,07,22,04,12,13.10
2013,07,22,04,13,13.10
2013,07,22,04,14,13.10
2013,07,22,04,15,13.10
2013,07,22,04,16,13.10
2013,07,22,04,17,13.10
2013,07,22,04,18,13.10
2013,07,22,04,19,13.10
2013,07,22,04,20,13.10
2013,07,22,04,21,13.00
2013,07,22,04,22,13.00
2013,07,22,04,23,13.00
2013,07,22,04,24,12.90
2013,07,22,04,25,12.90
2013,07,22,04,26,12.90
2013,07,22,04,27,12.90
2013,07,22,04,28,12.90
2013,07,22,04,29,12.90
2013,07,22,04,30,12.90
2013,07,22,04,31,12.80
2013,07,22,04,32,12.80
2013,07,22,04,33,12.80
2013,07,22,04,34,12.80
2013,07,22,04,35,12.80
2013,07,22,04,36,12.80
2013,07,22,04,37,12.80
2013,07,22,04,38,12.80
2013,07,22,04,39,12.80
2013,07,22,04,40,12.80
2013,07,22,04,41,12.70
2013,07,22,04,42,12.70
2013,07,22,04,43,12.70
2013,07,22,04,44,12.70
2013,07,22,04,45,12.70
2013,07,22,04,46,12.70
2013,07,22,04,47,12.70
2013,07,22,04,48,12.70
2013,07,22,04,49,12.70
2013,07,22,04,50,12.60
2013,07,22,04,51,12.60
2013,07,22,04,52,12.60
2013,07,22,04,53,12.60
2013,07,22,04,54,12.60
2013,07,22,04,55,12.60
2013,07,22,04,56,12.60
2013,07,22,04,57,12.70
2013,07,22,04,58,12.70
2013,07,22,04,59,12.70
2013,07,22,05,00,12.60
2013,07,22,05,01,12.60
2013,07,22,05,02,12.60
2013,07,22,05,03,12.60
2013,07,22,05,04,12.60
2013,07,22,05,05,12.60
2013,07,22,05,06,12.60
2013,07,22,05,07,12.60
2013,07,22,05,08,12.60
2013,07,22,05,09,12.60
2013,07,22,05,10,12.70
2013,07,22,05,11,12.70
2013,07,22,05,12,12.70
2013,07,22,05,13,12.70
2013,07,22,05,14,12.70
2013,07,22,05,15,12.70
2013,07,22,05,16,12.70
2013,07,22,05,17,12.80
2013,07,22,05,18,12.80
2013,07,22,05,19,12.80
2013,07,22,05,20,12.80
2013,07,22,05,21,12.80
2013,07,22,05,22,12.80
2013,07,22,05,23,12.80
2013,07,22,05,24,12.90
2013,07,22,05,25,12.90
2013,07,22,05,26,12.90
2013,07,22,05,27,12.90
2013,07,22,05,28,12.90
2013,07,22,05,29,12.90
2013,07,22,05,30,12.90
2013,07,22,05,31,12.90
2013,07,22,05,32,12.90
2013,07,22,05,33,12.90
2013,07,22,05,34,12.90
2013,07,22,05,35,12.90
2013,07,22,05,36,12.90
2013,07,22,05,37,12.90
2013,07,22,05,38,12.90
2013,07,22,05,39,12.90
2013,07,22,05,40,12.90
2013,07,22,05,41,12.90
2013,07,22,05,42,12.90
2013,07,22,05,43,12.90
2013,07,22,05,44,12.90
2013,07,22,05,45,12.90
2013,07,22,05,46,13.00
2013,07,22,05,47,13.00
2013,07,22,05,48,12.90
2013,07,22,05,49,12.90
2013,07,22,05,50,12.90
2013,07,22,05,51,12.90
2013,07,22,05,52,12.90
2013,07,22,05,53,12.90
2013,07,22,05,54,12.90
2013,07,22,05,55,12.90
2013,07,22,05,56,12.90
2013,07,22,05,57,12.90
2013,07,22,05,58,12.90
2013,07,22,05,59,12.90
2013,07,22,06,00,12.90
2013,07,22,06,01,12.90
2013,07,22,06,02,12.90
2013,07,22,06,03,12.90
2013,07,22,06,04,12.90
2013,07,22,06,05,13.00
2013,07,22,06,06,13.00
2013,07,22,06,07,13.00
2013,07,22,06,08,13.00
2013,07,22,06,09,13.00
2013,07,22,06,10,13.00
2013,07,22,06,11,13.00
2013,07,22,06,12,13.00
2013,07,22,06,13,13.00
2013,07,22,06,14,13.00
2013,07,22,06,15,13.00
2013,07,22,06,16,13.00
2013,07,22,06,17,13.00
2013,07,22,06,18,13.00
2013,07,22,06,19,13.00
2013,07,22,06,20,13.00
2013,07,22,06,21,13.00
2013,07,22,06,22,13.10
2013,07,22,06,23,13.10
2013,07,22,06,24,13.10
2013,07,22,06,25,13.00
2013,07,22,06,26,13.00
2013,07,22,06,27,13.00
2013,07,22,06,28,13.00
2013,07,22,06,29,13.00
2013,07,22,06,30,13.00
2013,07,22,06,31,13.10
2013,07,22,06,32,13.10
2013,07,22,06,33,13.10
2013,07,22,06,34,13.10
2013,07,22,06,35,13.10
2013,07,22,06,36,13.10
2013,07,22,06,37,13.10
2013,07,22,06,38,13.10
2013,07,22,06,39,13.10
2013,07,22,06,40,13.10
2013,07,22,06,41,13.10
2013,07,22,06,42,13.10
2013,07,22,06,43,13.10
2013,07,22,06,44,13.10
2013,07,22,06,45,13.10
2013,07,22,06,46,13.10
2013,07,22,06,47,13.10
2013,07,22,06,48,13.10
2013,07,22,06,49,13.10
2013,07,22,06,50,13.10
2013,07,22,06,51,13.10
2013,07,22,06,52,13.10
2013,07,22,06,53,13.10
2013,07,22,06,54,13.10
2013,07,22,06,55,13.10
2013,07,22,06,56,13.10
2013,07,22,06,57,13.10
2013,07,22,06,58,13.10
2013,07,22,06,59,13.10
2013,07,22,07,00,13.10
2013,07,22,07,01,13.10
2013,07,22,07,02,13.10
2013,07,22,07,03,13.10
2013,07,22,07,04,13.10
2013,07,22,07,05,13.10
2013,07,22,07,06,13.10
2013,07,22,07,07,13.10
2013,07,22,07,08,13.10
2013,07,22,07,09,13.20
2013,07,22,07,10,13.20
2013,07,22,07,11,13.20
2013,07,22,07,12,13.20
2013,07,22,07,13,13.20
2013,07,22,07,14,13.30
2013,07,22,07,15,13.30
2013,07,22,07,16,13.30
2013,07,22,07,17,13.30
2013,07,22,07,18,13.30
2013,07,22,07,19,13.30
2013,07,22,07,20,13.30
2013,07,22,07,21,13.30
2013,07,22,07,22,13.30
2013,07,22,07,23,13.30
2013,07,22,07,24,13.30
2013,07,22,07,25,13.30
2013,07,22,07,26,13.30
2013,07,22,07,27,13.30
2013,07,22,07,28,13.30
2013,07,22,07,29,13.30
2013,07,22,07,30,13.30
2013,07,22,07,31,13.30
2013,07,22,07,32,13.30
2013,07,22,07,33,13.30
2013,07,22,07,34,13.40
2013,07,22,07,35,13.40
2013,07,22,07,36,13.40
2013,07,22,07,37,13.40
2013,07,22,07,38,13.40
2013,07,22,07,39,13.50
2013,07,22,07,40,13.50
2013,07,22,07,41,13.50
2013,07,22,07,42,13.50
2013,07,22,07,43,13.50
2013,07,22,07,44,13.50
2013,07,22,07,45,13.50
2013,07,22,07,46,13.50
2013,07,22,07,47,13.50
2013,07,22,07,48,13.50
2013,07,22,07,49,13.50
2013,07,22,07,50,13.50
2013,07,22,07,51,13.50
2013,07,22,07,52,13.50
2013,07,22,07,53,13.60
2013,07,22,07,54,13.60
2013,07,22,07,55,13.70
2013,07,22,07,56,13.70
2013,07,22,07,57,13.80
2013,07,22,07,58,13.80
2013,07,22,07,59,13.80
2013,07,22,08,00,13.70
2013,07,22,08,01,13.70
2013,07,22,08,02,13.80
2013,07,22,08,03,13.80
2013,07,22,08,04,13.80
2013,07,22,08,05,13.90
2013,07,22,08,06,14.00
2013,07,22,08,07,14.00
2013,07,22,08,08,14.10
2013,07,22,08,09,14.20
2013,07,22,08,10,14.30
2013,07,22,08,11,14.30
2013,07,22,08,12,14.30
2013,07,22,08,13,14.40
2013,07,22,08,14,14.40
2013,07,22,08,15,14.50
2013,07,22,08,16,14.50
2013,07,22,08,17,14.50
2013,07,22,08,18,14.60
2013,07,22,08,19,14.60
2013,07,22,08,20,14.60
2013,07,22,08,21,14.50
2013,07,22,08,22,14.60
2013,07,22,08,23,14.60
2013,07,22,08,24,14.60
2013,07,22,08,25,14.60
2013,07,22,08,26,14.70
2013,07,22,08,27,14.70
2013,07,22,08,28,14.70
2013,07,22,08,29,14.70
2013,07,22,08,30,14.70
2013,07,22,08,31,14.70
2013,07,22,08,32,14.60
2013,07,22,08,33,14.70
2013,07,22,08,34,14.70
2013,07,22,08,35,14.70
2013,07,22,08,36,14.70
2013,07,22,08,37,14.70
2013,07,22,08,38,14.80
2013,07,22,08,39,14.90
2013,07,22,08,40,14.90
2013,07,22,08,41,14.90
2013,07,22,08,42,14.90
2013,07,22,08,43,15.00
2013,07,22,08,44,15.00
2013,07,22,08,45,15.00
2013,07,22,08,46,15.00
2013,07,22,08,47,15.10
2013,07,22,08,48,15.10
2013,07,22,08,49,15.20
2013,07,22,08,50,15.20
2013,07,22,08,51,15.30
2013,07,22,08,52,15.40
2013,07,22,08,53,15.50
2013,07,22,08,54,15.50
2013,07,22,08,55,15.60
2013,07,22,08,56,15.70
2013,07,22,08,57,15.80
2013,07,22,08,58,15.90
2013,07,22,08,59,15.90
2013,07,22,09,00,15.90
2013,07,22,09,01,16.00
2013,07,22,09,02,16.00
2013,07,22,09,03,16.10
2013,07,22,09,04,16.10
2013,07,22,09,05,16.20
2013,07,22,09,06,16.20
2013,07,22,09,07,16.30
2013,07,22,09,08,16.40
2013,07,22,09,09,16.50
2013,07,22,09,10,16.50
2013,07,22,09,11,16.60
2013,07,22,09,12,16.60
2013,07,22,09,13,16.60
2013,07,22,09,14,16.60
2013,07,22,09,15,16.60
2013,07,22,09,16,16.60
2013,07,22,09,17,16.60
2013,07,22,09,18,16.70
2013,07,22,09,19,16.70
2013,07,22,09,20,16.70
2013,07,22,09,21,16.70
2013,07,22,09,22,16.80
2013,07,22,09,23,16.80
2013,07,22,09,24,16.80
2013,07,22,09,25,16.90
2013,07,22,09,26,16.90
2013,07,22,09,27,16.90
2013,07,22,09,28,17.00
2013,07,22,09,29,17.00
2013,07,22,09,30,17.00
2013,07,22,09,31,17.00
2013,07,22,09,32,17.00
2013,07,22,09,33,17.00
2013,07,22,09,34,17.00
2013,07,22,09,35,17.10
2013,07,22,09,36,17.10
2013,07,22,09,37,17.10
2013,07,22,09,38,17.10
2013,07,22,09,39,17.20
2013,07,22,09,40,17.30
2013,07,22,09,41,17.30
2013,07,22,09,42,17.40
2013,07,22,09,43,17.40
2013,07,22,09,44,17.40
2013,07,22,09,45,17.50
2013,07,22,09,46,17.60
2013,07,22,09,47,17.60
2013,07,22,09,48,17.70
2013,07,22,09,49,17.70
2013,07,22,09,50,17.80
2013,07,22,09,51,17.90
2013,07,22,09,52,18.00
2013,07,22,09,53,18.10
2013,07,22,09,54,18.20
2013,07,22,09,55,18.20
2013,07,22,09,56,18.30
2013,07,22,09,57,18.30
2013,07,22,09,58,18.30
2013,07,22,09,59,18.40
2013,07,22,10,00,18.40
2013,07,22,10,01,18.40
2013,07,22,10,02,18.50
2013,07,22,10,03,18.50
2013,07,22,10,04,18.60
2013,07,22,10,05,18.70
2013,07,22,10,06,18.80
2013,07,22,10,07,18.90
2013,07,22,10,08,19.00
2013,07,22,10,09,19.00
2013,07,22,10,10,19.10
2013,07,22,10,11,19.10
2013,07,22,10,12,19.20
2013,07,22,10,13,19.20
2013,07,22,10,14,19.20
2013,07,22,10,15,19.10
2013,07,22,10,16,19.00
2013,07,22,10,17,19.00
2013,07,22,10,18,19.10
2013,07,22,10,19,19.10
2013,07,22,10,20,19.10
2013,07,22,10,21,19.10
2013,07,22,10,22,19.10
2013,07,22,10,23,19.10
2013,07,22,10,24,19.10
2013,07,22,10,25,19.10
2013,07,22,10,26,19.20
2013,07,22,10,27,19.20
2013,07,22,10,28,19.30
2013,07,22,10,29,19.40
2013,07,22,10,30,19.50
2013,07,22,10,31,19.50
2013,07,22,10,32,19.50
2013,07,22,10,33,19.60
2013,07,22,10,34,19.60
2013,07,22,10,35,19.70
2013,07,22,10,36,19.80
2013,07,22,10,37,19.80
2013,07,22,10,38,20.00
2013,07,22,10,39,20.00
2013,07,22,10,40,20.10
2013,07,22,10,41,20.10
2013,07,22,10,42,20.10
2013,07,22,10,43,20.20
2013,07,22,10,44,20.20
2013,07,22,10,45,20.20
2013,07,22,10,46,20.10
2013,07,22,10,47,20.10
2013,07,22,10,48,20.10
2013,07,22,10,49,20.20
2013,07,22,10,50,20.20
2013,07,22,10,51,20.20
2013,07,22,10,52,20.20
2013,07,22,10,53,20.20
2013,07,22,10,54,20.20
2013,07,22,10,55,20.10
2013,07,22,10,56,20.10
2013,07,22,10,57,20.10
2013,07,22,10,58,20.10
2013,07,22,10,59,20.10
2013,07,22,11,00,20.10
2013,07,22,11,01,20.10
2013,07,22,11,02,20.10
2013,07,22,11,03,20.10
2013,07,22,11,04,20.10
2013,07,22,11,05,20.10
2013,07,22,11,06,20.20
2013,07,22,11,07,20.20
2013,07,22,11,08,20.30
2013,07,22,11,09,20.30
2013,07,22,11,10,20.30
2013,07,22,11,11,20.30
2013,07,22,11,12,20.30
2013,07,22,11,13,20.30
2013,07,22,11,14,20.30
2013,07,22,11,15,20.50
2013,07,22,11,16,20.80
2013,07,22,11,17,20.80
2013,07,22,11,18,20.80
2013,07,22,11,19,20.90
2013,07,22,11,20,20.90
2013,07,22,11,21,20.90
2013,07,22,11,22,20.90
2013,07,22,11,23,20.90
2013,07,22,11,24,21.00
2013,07,22,11,25,21.00
2013,07,22,11,26,21.00
2013,07,22,11,27,21.00
2013,07,22,11,28,21.10
2013,07,22,11,29,21.20
2013,07,22,11,30,21.20
2013,07,22,11,31,21.20
2013,07,22,11,32,21.20
2013,07,22,11,33,21.30
2013,07,22,11,34,21.30
2013,07,22,11,35,21.30
2013,07,22,11,36,21.30
2013,07,22,11,37,21.30
2013,07,22,11,38,21.30
2013,07,22,11,39,21.40
2013,07,22,11,40,21.40
2013,07,22,11,41,21.50
2013,07,22,11,42,21.50
2013,07,22,11,43,21.50
2013,07,22,11,44,21.60
2013,07,22,11,45,21.60
2013,07,22,11,46,21.60
2013,07,22,11,47,21.60
2013,07,22,11,48,21.70
2013,07,22,11,49,21.60
2013,07,22,11,50,21.70
2013,07,22,11,51,21.70
2013,07,22,11,52,21.70
2013,07,22,11,53,21.70
2013,07,22,11,54,21.80
2013,07,22,11,55,21.80
2013,07,22,11,56,21.90
2013,07,22,11,57,22.00
2013,07,22,11,58,22.00
2013,07,22,11,59,22.10
2013,07,22,12,00,22.20
2013,07,22,12,01,22.30
2013,07,22,12,02,22.30
2013,07,22,12,03,22.30
2013,07,22,12,04,22.30
2013,07,22,12,05,22.30
2013,07,22,12,06,22.40
2013,07,22,12,07,22.40
2013,07,22,12,08,22.50
2013,07,22,12,09,22.50
2013,07,22,12,10,22.60
2013,07,22,12,11,22.70
2013,07,22,12,12,22.80
2013,07,22,12,13,22.80
2013,07,22,12,14,22.80
2013,07,22,12,15,22.80
2013,07,22,12,16,22.80
2013,07,22,12,17,22.80
2013,07,22,12,18,22.80
2013,07,22,12,19,22.80
2013,07,22,12,20,22.70
2013,07,22,12,21,22.70
2013,07,22,12,22,22.70
2013,07,22,12,23,22.60
2013,07,22,12,24,22.60
2013,07,22,12,25,22.60
2013,07,22,12,26,22.50
2013,07,22,12,27,22.50
2013,07,22,12,28,22.40
2013,07,22,12,29,22.40
2013,07,22,12,30,22.40
2013,07,22,12,31,22.40
2013,07,22,12,32,22.40
2013,07,22,12,33,22.40
2013,07,22,12,34,22.40
2013,07,22,12,35,22.40
2013,07,22,12,36,22.40
2013,07,22,12,37,22.50
2013,07,22,12,38,22.60
2013,07,22,12,39,22.70
2013,07,22,12,40,22.80
2013,07,22,12,41,22.90
2013,07,22,12,42,22.80
2013,07,22,12,43,22.80
2013,07,22,12,44,22.80
2013,07,22,12,45,22.80
2013,07,22,12,46,22.80
2013,07,22,12,47,22.90
2013,07,22,12,48,23.00
2013,07,22,12,49,23.10
2013,07,22,12,50,23.20
2013,07,22,12,51,23.20
2013,07,22,12,52,23.20
2013,07,22,12,53,23.20
2013,07,22,12,54,23.10
2013,07,22,12,55,23.00
2013,07,22,12,56,22.90
2013,07,22,12,57,22.80
2013,07,22,12,58,22.80
2013,07,22,12,59,22.80
2013,07,22,13,00,22.90
2013,07,22,13,01,23.00
2013,07,22,13,02,23.00
2013,07,22,13,03,23.00
2013,07,22,13,04,22.90
2013,07,22,13,05,23.00
2013,07,22,13,06,23.10
2013,07,22,13,07,23.20
2013,07,22,13,08,23.40
2013,07,22,13,09,23.50
2013,07,22,13,10,23.50
2013,07,22,13,11,23.60
2013,07,22,13,12,23.70
2013,07,22,13,13,23.80
2013,07,22,13,14,23.90
2013,07,22,13,15,24.10
2013,07,22,13,16,24.20
2013,07,22,13,17,24.30
2013,07,22,13,18,24.40
2013,07,22,13,19,24.40
2013,07,22,13,20,24.30
2013,07,22,13,21,24.40
2013,07,22,13,22,24.50
2013,07,22,13,23,24.60
2013,07,22,13,24,24.60
2013,07,22,13,25,24.60
2013,07,22,13,26,24.50
2013,07,22,13,27,24.50
2013,07,22,13,28,24.50
2013,07,22,13,29,24.50
2013,07,22,13,30,24.60
2013,07,22,13,31,24.60
2013,07,22,13,32,24.70
2013,07,22,13,33,24.80
2013,07,22,13,34,24.90
2013,07,22,13,35,25.10
2013,07,22,13,36,25.20
2013,07,22,13,37,25.20
2013,07,22,13,38,25.20
2013,07,22,13,39,25.20
2013,07,22,13,40,25.30
2013,07,22,13,41,25.30
2013,07,22,13,42,25.40
2013,07,22,13,43,25.50
2013,07,22,13,44,25.60
2013,07,22,13,45,25.60
2013,07,22,13,46,25.70
2013,07,22,13,47,25.70
2013,07,22,13,48,25.70
2013,07,22,13,49,25.70
2013,07,22,13,50,25.70
2013,07,22,13,51,25.70
2013,07,22,13,52,25.70
2013,07,22,13,53,25.60
2013,07,22,13,54,25.60
2013,07,22,13,55,25.60
2013,07,22,13,56,25.70
2013,07,22,13,57,25.90
2013,07,22,13,58,26.00
2013,07,22,13,59,26.10
2013,07,22,14,00,26.20
2013,07,22,14,01,26.30
2013,07,22,14,02,26.40
2013,07,22,14,03,26.50
2013,07,22,14,04,26.50
2013,07,22,14,05,26.50
2013,07,22,14,06,26.50
2013,07,22,14,07,26.40
2013,07,22,14,08,26.40
2013,07,22,14,09,26.30
2013,07,22,14,10,26.30
2013,07,22,14,11,26.20
2013,07,22,14,12,26.10
2013,07,22,14,13,26.00
2013,07,22,14,14,25.90
2013,07,22,14,15,25.90
2013,07,22,14,16,26.00
2013,07,22,14,17,26.00
2013,07,22,14,18,26.00
2013,07,22,14,19,25.90
2013,07,22,14,20,25.90
2013,07,22,14,21,25.90
2013,07,22,14,22,25.80
2013,07,22,14,23,25.70
2013,07,22,14,24,25.70
2013,07,22,14,25,25.70
2013,07,22,14,26,25.60
2013,07,22,14,27,25.60
2013,07,22,14,28,25.70
2013,07,22,14,29,25.80
2013,07,22,14,30,25.90
2013,07,22,14,31,26.00
2013,07,22,14,32,26.10
2013,07,22,14,33,26.10
2013,07,22,14,34,26.20
2013,07,22,14,35,26.40
2013,07,22,14,36,26.50
2013,07,22,14,37,26.60
2013,07,22,14,38,26.60
2013,07,22,14,39,26.60
2013,07,22,14,40,26.50
2013,07,22,14,41,26.50
2013,07,22,14,42,26.50
2013,07,22,14,43,26.50
2013,07,22,14,44,26.50
2013,07,22,14,45,26.40
2013,07,22,14,46,26.40
2013,07,22,14,47,26.30
2013,07,22,14,48,26.40
2013,07,22,14,49,26.30
2013,07,22,14,50,26.30
2013,07,22,14,51,26.40
2013,07,22,14,52,26.50
2013,07,22,14,53,26.60
2013,07,22,14,54,26.70
2013,07,22,14,55,26.70
2013,07,22,14,56,26.70
2013,07,22,14,57,26.60
2013,07,22,14,58,26.60
2013,07,22,14,59,26.70
2013,07,22,15,00,26.70
2013,07,22,15,01,26.80
2013,07,22,15,02,26.90
2013,07,22,15,03,27.10
2013,07,22,15,04,27.20
2013,07,22,15,05,27.20
2013,07,22,15,06,27.20
2013,07,22,15,07,27.10
2013,07,22,15,08,27.20
2013,07,22,15,09,27.20
2013,07,22,15,10,27.20
2013,07,22,15,11,27.30
2013,07,22,15,12,27.40
2013,07,22,15,13,27.40
2013,07,22,15,14,27.30
2013,07,22,15,15,27.30
2013,07,22,15,16,27.30
2013,07,22,15,17,27.30
2013,07,22,15,18,27.30
2013,07,22,15,19,27.40
2013,07,22,15,20,27.40
2013,07,22,15,21,27.40
2013,07,22,15,22,27.50
2013,07,22,15,23,27.50
2013,07,22,15,24,27.50
2013,07,22,15,25,27.40
2013,07,22,15,26,27.30
2013,07,22,15,27,27.30
2013,07,22,15,28,27.30
2013,07,22,15,29,27.30
2013,07,22,15,30,27.40
2013,07,22,15,31,27.50
2013,07,22,15,32,27.50
2013,07,22,15,33,27.60
2013,07,22,15,34,27.70
2013,07,22,15,35,27.80
2013,07,22,15,36,27.90
2013,07,22,15,37,27.90
2013,07,22,15,38,27.90
2013,07,22,15,39,27.90
2013,07,22,15,40,27.90
2013,07,22,15,41,27.90
2013,07,22,15,42,27.80
2013,07,22,15,43,27.90
2013,07,22,15,44,27.80
2013,07,22,15,45,27.80
2013,07,22,15,46,27.70
2013,07,22,15,47,27.80
2013,07,22,15,48,27.80
2013,07,22,15,49,27.80
2013,07,22,15,50,27.70
2013,07,22,15,51,27.70
2013,07,22,15,52,27.70
2013,07,22,15,53,27.60
2013,07,22,15,54,27.50
2013,07,22,15,55,27.50
2013,07,22,15,56,27.50
2013,07,22,15,57,27.40
2013,07,22,15,58,27.40
2013,07,22,15,59,27.30
2013,07,22,16,00,27.20
2013,07,22,16,01,27.10
2013,07,22,16,02,27.10
2013,07,22,16,03,27.10
2013,07,22,16,04,27.20
2013,07,22,16,05,27.20
2013,07,22,16,06,27.30
2013,07,22,16,07,27.30
2013,07,22,16,08,27.30
2013,07,22,16,09,27.20
2013,07,22,16,10,27.30
2013,07,22,16,11,27.30
2013,07,22,16,12,27.30
2013,07,22,16,13,27.30
2013,07,22,16,14,27.40
2013,07,22,16,15,27.50
2013,07,22,16,16,27.60
2013,07,22,16,17,27.70
2013,07,22,16,18,27.80
2013,07,22,16,19,27.80
2013,07,22,16,20,27.80
2013,07,22,16,21,27.80
2013,07,22,16,22,27.80
2013,07,22,16,23,27.90
2013,07,22,16,24,27.90
2013,07,22,16,25,27.80
2013,07,22,16,26,27.80
2013,07,22,16,27,27.60
2013,07,22,16,28,27.50
2013,07,22,16,29,27.40
2013,07,22,16,30,27.30
2013,07,22,16,31,27.30
2013,07,22,16,32,27.30
2013,07,22,16,33,27.40
2013,07,22,16,34,27.40
2013,07,22,16,35,27.30
2013,07,22,16,36,27.30
2013,07,22,16,37,27.30
2013,07,22,16,38,27.40
2013,07,22,16,39,27.30
2013,07,22,16,40,27.20
2013,07,22,16,41,27.10
2013,07,22,16,42,27.00
2013,07,22,16,43,26.90
2013,07,22,16,44,26.80
2013,07,22,16,45,26.70
2013,07,22,16,46,26.70
2013,07,22,16,47,26.80
2013,07,22,16,48,26.90
2013,07,22,16,49,27.00
2013,07,22,16,50,27.20
2013,07,22,16,51,27.40
2013,07,22,16,52,27.50
2013,07,22,16,53,27.70
2013,07,22,16,54,27.70
2013,07,22,16,55,27.70
2013,07,22,16,56,27.70
2013,07,22,16,57,27.60
2013,07,22,16,58,27.60
2013,07,22,16,59,27.50
2013,07,22,17,00,27.50
2013,07,22,17,01,27.30
2013,07,22,17,02,27.10
2013,07,22,17,03,26.90
2013,07,22,17,04,26.80
2013,07,22,17,05,26.70
2013,07,22,17,06,26.80
2013,07,22,17,07,26.80
2013,07,22,17,08,26.80
2013,07,22,17,09,26.80
2013,07,22,17,10,26.80
2013,07,22,17,11,26.60
2013,07,22,17,12,26.60
2013,07,22,17,13,26.50
2013,07,22,17,14,26.50
2013,07,22,17,15,26.50
2013,07,22,17,16,26.50
2013,07,22,17,17,26.50
2013,07,22,17,18,26.50
2013,07,22,17,19,26.50
2013,07,22,17,20,26.60
2013,07,22,17,21,26.70
2013,07,22,17,22,26.60